Meadow Lake, CO

7:17 PM MST on November 19, 2017 (GMT -0700)
Meadow Lake

Weather History for KFLY - December, 2013

Change the Weather History Date:

Saturday, December 14, 2013

  Actual Average (KCOS) Record (KCOS)
Temperature  
Mean Temperature 29 °F -  
Max Temperature 38 °F 44 °F 69 °F (1924)
Min Temperature 20 °F 17 °F -14 °F (1926)
Degree Days  
Heating Degree Days 36    
Moisture  
Dew Point 13 °F    
Average Humidity 56    
Maximum Humidity 82    
Minimum Humidity 30    
Precipitation  
Precipitation 0.00 in - - ()
Sea Level Pressure  
Sea Level Pressure 30.20 in    
Wind  
Wind Speed 10 mph (NNW)    
Max Wind Speed 15 mph    
Max Gust Speed 21 mph    
Visibility 10 miles    
Events      
Averages and records for this station are not official NWS values.
T = Trace of Precipitation, MM = Missing Value Source: NWS Daily Summary

Daily Weather History Graph

Daily Weather History Graph

Search for Another Location

Airport or City:

Trip Planner

Search our weather history database for the weather conditions in past years. The results will help you decide how hot, cold, wet, or windy it might be!

Date:

Astronomy

Dec. 14, 2013 Rise Set
Actual Time 7:09 AM MST 4:36 PM MST
Civil Twilight 6:39 AM MST 5:06 PM MST
Nautical Twilight 6:05 AM MST 5:40 PM MST
Astronomical Twilight 5:33 AM MST 6:12 PM MST
Moon 2:59 PM MST (12/14) 4:33 AM MST (12/14)
Length of Visible Light 10h 27m
Length of Day
9h 27m
Waxing Gibbous, 94% of the Moon is Illuminated
Dec 14
Waxing Gibbous
Dec 17
Full
Dec 25
Last Quarter
Jan 1
New
Jan 7
First Quarter

Hourly Weather History & Observations

Time (MST) Temp. Windchill Dew Point Humidity Pressure Visibility Wind Dir Wind Speed Gust Speed Precip Events Conditions
12:12 AM 26.6 °F 16.2 °F 15.4 °F 63% 30.11 in 10.0 mi North 11.5 mph - N/A   Overcast
12:32 AM 26.2 °F 14.7 °F 15.6 °F 64% 30.12 in 10.0 mi North 13.8 mph - N/A   Overcast
12:52 AM 25.3 °F 13.6 °F 15.8 °F 67% 30.12 in 10.0 mi North 13.8 mph 20.7 mph N/A   Scattered Clouds
1:12 AM 24.3 °F 13.3 °F 15.8 °F 70% 30.12 in 10.0 mi NNW 11.5 mph - N/A   Clear
1:32 AM 23.9 °F 11.2 °F 16.2 °F 72% 30.13 in 10.0 mi North 15.0 mph - N/A   Clear
1:52 AM 23.4 °F 13.5 °F 16.2 °F 74% 30.13 in 10.0 mi NNW 9.2 mph - N/A   Clear
2:12 AM 22.1 °F 13.7 °F 15.6 °F 76% 30.14 in 10.0 mi NNW 6.9 mph - N/A   Clear
2:32 AM 22.6 °F 14.3 °F 16.0 °F 76% 30.15 in 10.0 mi North 6.9 mph - N/A   Clear
2:52 AM 22.3 °F 13.0 °F 16.3 °F 78% 30.16 in 10.0 mi NNW 8.1 mph - N/A   Clear
3:12 AM 22.8 °F 13.6 °F 16.5 °F 77% 30.16 in 10.0 mi NNW 8.1 mph - N/A   Clear
3:32 AM 22.6 °F 11.9 °F 16.7 °F 78% 30.16 in 10.0 mi North 10.4 mph - N/A   Clear
3:52 AM 22.5 °F 12.4 °F 16.7 °F 79% 30.17 in 10.0 mi NNW 9.2 mph - N/A   Clear
4:12 AM 21.2 °F 10.1 °F 16.5 °F 82% 30.16 in 10.0 mi NNW 10.4 mph - N/A   Clear
4:32 AM 21.9 °F 11.7 °F 17.1 °F 82% 30.17 in 10.0 mi North 9.2 mph - N/A   Clear
4:52 AM 21.7 °F 10.8 °F 16.9 °F 82% 30.17 in 10.0 mi NNW 10.4 mph - N/A   Clear
5:12 AM 22.1 °F 10.6 °F 16.7 °F 80% 30.18 in 10.0 mi North 11.5 mph - N/A   Clear
5:32 AM 22.6 °F 11.9 °F 16.5 °F 77% 30.19 in 10.0 mi NNW 10.4 mph - N/A   Clear
5:52 AM 21.7 °F 12.3 °F 15.8 °F 78% 30.20 in 10.0 mi NNW 8.1 mph - N/A   Clear
6:12 AM 22.6 °F 14.3 °F 15.4 °F 74% 30.21 in 10.0 mi NNW 6.9 mph - N/A   Clear
6:32 AM 21.6 °F 13.0 °F 14.7 °F 75% 30.22 in 10.0 mi NNW 6.9 mph - N/A   Clear
6:52 AM 20.3 °F 11.5 °F 14.0 °F 77% 30.22 in 10.0 mi NNW 6.9 mph - N/A   Clear
7:12 AM 21.0 °F - 14.0 °F 74% 30.23 in 10.0 mi North - - N/A   Clear
7:32 AM 22.3 °F - 14.5 °F 72% 30.24 in 10.0 mi North - - N/A   Clear
7:52 AM 24.4 °F - 15.1 °F 68% 30.25 in 10.0 mi North - - N/A   Clear
8:12 AM 28.2 °F 19.5 °F 14.5 °F 57% 30.26 in 10.0 mi NW 9.2 mph - N/A   Clear
8:32 AM 30.0 °F 21.7 °F 14.2 °F 52% 30.26 in 10.0 mi NW 9.2 mph - N/A   Clear
8:52 AM 32.0 °F 24.8 °F 12.6 °F 45% 30.27 in 10.0 mi NNW 8.1 mph - N/A   Clear
9:12 AM 32.9 °F 24.7 °F 11.1 °F 40% 30.28 in 10.0 mi NNW 10.4 mph - N/A   Clear
9:32 AM 33.1 °F 25.5 °F 10.0 °F 38% 30.27 in 10.0 mi NNW 9.2 mph 17.3 mph N/A   Clear
9:52 AM 33.6 °F 26.2 °F 9.5 °F 37% 30.27 in 10.0 mi North 9.2 mph 18.4 mph N/A   Clear
10:12 AM 33.8 °F 26.4 °F 9.5 °F 36% 30.27 in 10.0 mi North 9.2 mph - N/A   Clear
10:32 AM 35.4 °F 29.7 °F 9.5 °F 34% 30.27 in 10.0 mi NNW 6.9 mph - N/A   Clear
10:52 AM 36.0 °F 30.3 °F 9.0 °F 33% 30.27 in 10.0 mi North 6.9 mph - N/A   Clear
11:12 AM 36.3 °F 33.7 °F 8.1 °F 31% 30.26 in 10.0 mi NNE 3.5 mph - N/A   Clear
11:32 AM 36.1 °F 30.6 °F 9.7 °F 33% 30.25 in 10.0 mi NE 6.9 mph - N/A   Clear
11:52 AM 37.2 °F 31.2 °F 9.9 °F 32% 30.24 in 10.0 mi NE 8.1 mph - N/A   Clear
12:12 PM 37.8 °F - 9.3 °F 31% 30.23 in 10.0 mi Calm Calm - N/A   Clear
12:32 PM 37.9 °F - 10.4 °F 32% 30.23 in 10.0 mi North - - N/A   Clear
12:52 PM 38.3 °F 34.8 °F 9.1 °F 30% 30.22 in 10.0 mi SW 4.6 mph - N/A   Clear
1:12 PM 38.1 °F - 9.3 °F 30% 30.21 in 10.0 mi North - - N/A   Clear
1:32 PM 38.3 °F - 9.7 °F 31% 30.21 in 10.0 mi North - - N/A   Clear
1:52 PM 38.1 °F 33.7 °F 10.4 °F 32% 30.20 in 10.0 mi South 5.8 mph - N/A   Clear
2:12 PM 38.1 °F 33.7 °F 10.4 °F 32% 30.19 in 10.0 mi South 5.8 mph - N/A   Clear
2:32 PM 37.6 °F - 10.6 °F 33% 30.20 in 10.0 mi North - - N/A   Clear
2:52 PM 37.4 °F - 11.1 °F 34% 30.19 in 10.0 mi North - - N/A   Clear
3:12 PM 37.4 °F 32.1 °F 11.1 °F 34% 30.19 in 10.0 mi South 6.9 mph - N/A   Clear
3:32 PM 36.3 °F 30.1 °F 10.9 °F 35% 30.19 in 10.0 mi South 8.1 mph - N/A   Clear
3:52 PM 34.9 °F 29.9 °F 11.1 °F 37% 30.19 in 10.0 mi South 5.8 mph - N/A   Clear
4:12 PM 32.7 °F - 11.7 °F 42% 30.20 in 10.0 mi North - - N/A   Clear
4:32 PM 29.7 °F - 12.2 °F 48% 30.19 in 10.0 mi North - - N/A   Clear
4:52 PM 27.5 °F - 12.2 °F 53% 30.19 in 10.0 mi North - - N/A   Clear
5:12 PM 26.6 °F - 12.0 °F 54% 30.19 in 10.0 mi North - - N/A   Clear
5:32 PM 27.0 °F - 11.7 °F 53% 30.21 in 10.0 mi North - - N/A   Clear
5:52 PM 25.3 °F - 12.0 °F 57% 30.21 in 10.0 mi North - - N/A   Clear
6:12 PM 25.7 °F - 11.7 °F 55% 30.20 in 10.0 mi North - - N/A   Clear
6:32 PM 25.5 °F - 11.8 °F 56% 30.21 in 10.0 mi North - - N/A   Clear
6:52 PM 24.8 °F - 11.7 °F 57% 30.21 in 10.0 mi North - - N/A   Clear
7:12 PM 25.3 °F - 11.3 °F 55% 30.21 in 10.0 mi North - - N/A   Clear
7:32 PM 25.0 °F - 11.1 °F 56% 30.21 in 10.0 mi North - - N/A   Clear
7:52 PM 24.4 °F - 11.7 °F 58% 30.21 in 10.0 mi North - - N/A   Clear
8:12 PM 24.8 °F - 12.0 °F 58% 30.21 in 10.0 mi North - - N/A   Clear
8:32 PM 25.5 °F - 11.5 °F 55% 30.21 in 10.0 mi North - - N/A   Clear
8:52 PM 25.3 °F - 11.3 °F 55% 30.21 in 10.0 mi North - - N/A   Clear
9:12 PM 24.1 °F - 10.9 °F 57% 30.21 in 10.0 mi North - - N/A   Clear
9:32 PM 24.6 °F - 11.5 °F 57% 30.20 in 10.0 mi North - - N/A   Clear
9:52 PM 24.3 °F - 10.8 °F 56% 30.19 in 10.0 mi North - - N/A   Clear
10:12 PM 23.2 °F - 10.9 °F 60% 30.19 in 10.0 mi North - - N/A   Clear
10:32 PM 22.5 °F - 11.8 °F 64% 30.19 in 10.0 mi North - - N/A   Clear
10:52 PM 21.2 °F 10.1 °F 11.3 °F 66% 30.18 in 10.0 mi WNW 10.4 mph - N/A   Clear
11:12 PM 25.0 °F - 11.5 °F 57% 30.18 in 10.0 mi North - - N/A   Clear
11:32 PM 23.0 °F 17.0 °F 11.1 °F 60% 30.18 in 10.0 mi WNW 4.6 mph - N/A   Clear
11:52 PM 23.9 °F - 12.2 °F 61% 30.17 in 10.0 mi North - - N/A   Clear